Location: Ariel
(45.9570°N, 122.5700°W)
Time: 15:53:53
(UTC-07:00)

Transit 4A - Pass Details

Date: 19 July 2019
Orbit: 863 x 981 km, 66.8° (Epoch: 24 August)

Event Time Altitude Azimuth Distance (km) Brightness Sun altitude
Rises 04:12:08 0° 234° (SW) 3,648 - -12.3°
Reaches altitude 10° 04:14:49 10° 241° (WSW) 2,715 - -12.0°
Exits shadow 04:15:29 13° 244° (WSW) 2,488 9.6 -11.9°
Maximum altitude 04:20:52 44° 313° (NW) 1,329 8.7 -11.2°
Drops below altitude 10° 04:27:00 10° 25° (NNE) 2,741 11.6 -10.5°
Sets 04:29:43 0° 31° (NNE) 3,687 12.8 -10.2°
